Temperature
18 18 18 18 18 18 18 18 18 18 17 17 17 17 17 17 17 17 17 17 17 17 17 17 17 17 17 17 17 17 17 17 16 16 16 16 16 16 16 16 16 16 16
18 18 18 18 18 18 18 18 18 18 17 17 17 17 17 17 17 17 17 17 17 17 17 17 17 17 17 17 17 17 17 16 16 16 16 16 16 16 16 16 16 16 16
18 18 18 18 18 18 18 18 18 18 17 17 17 17 17 17 17 17 17 17 17 17 17 17 17 17 17 17 17 17 17 16 16 16 16 16 16 16 16 16 16 16 16
18 18 18 18 18 18 18 18 18 18 18 17 17 17 17 17 17 17 17 17 17 17 17 17 17 17 17 17 17 17 17 16 16 16 16 16 16 16 16 16 16 15 15
18 18 18 18 18 18 18 18 18 18 18 17 17 17 17 17 17 17 17 17 17 17 17 17 17 17 17 17 17 17 17 16 16 16 16 16 16 16 16 16 15 15 15
19 19 18 18 18 18 18 18 18 18 18 18 18 17 17 17 17 17 17 17 17 17 17 17 17 17 17 17 17 17 17 17 16 16 16 16 16 16 16 16 15 15 15
19 19 18 18 18 18 18 18 18 18 18 18 18 17 17 18 18 18 18 17 17 17 17 17 17 17 17 17 17 17 17 16 16 16 16 16 16 16 16 15 15 15 15
19 19 18 18 18 18 18 18 18 18 18 18 18 18 17 18 18 18 18 18 17 17 17 17 17 17 17 17 17 17 17 16 16 16 16 16 16 16 15 15 15 15 15
19 19 19 18 18 18 18 18 18 18 18 18 18 18 18 18 18 18 18 18 18 17 17 17 17 17 17 17 17 17 17 16 16 16 16 16 16 15 15 15 15 15 15
19 19 19 19 18 18 18 18 18 18 18 18 18 18 18 18 18 17 18 18 18 18 17 17 17 17 17 17 17 17 17 16 16 16 16 16 15 15 15 15 15 15 15
19 19 19 19 18 18 18 18 18 18 18 18 18 18 19 18 18 18 17 18 18 18 18 17 17 17 17 17 17 17 16 16 16 16 16 15 15 15 15 15 15 14 14
19 19 19 19 18 18 18 18 18 18 18 18 18 18 18 18 18 18 18 18 18 18 18 17 17 17 17 17 17 17 16 16 16 16 16 15 15 15 15 14 14 14 14
19 19 19 19 18 18 18 18 18 18 18 18 18 18 18 18 18 18 18 18 17 17 18 17 17 17 17 17 17 17 17 16 16 16 16 16 15 15 15 14 14 14 14
19 19 19 19 18 18 18 18 18 18 18 18 18 18 18 18 18 18 18 18 17 17 17 17 17 17 17 17 17 17 16 16 16 16 16 15 15 15 15 14 14 14 14
19 19 19 19 18 18 18 18 18 18 18 18 18 18 18 18 18 18 18 17 17 17 17 17 17 17 17 17 17 17 16 16 16 16 16 15 15 15 15 15 14 14 14
19 19 19 19 18 18 18 18 18 18 18 18 18 17 18 18 18 18 18 17 17 17 17 17 17 17 17 17 17 16 16 16 16 16 16 15 15 15 15 14 14 14 14
19 19 18 18 18 18 18 18 18 18 18 17 17 17 17 17 17 17 17 17 17 17 17 17 17 17 17 17 16 16 16 16 16 16 15 15 15 15 14 14 14 14 13
19 19 19 18 18 18 18 18 18 18 18 17 17 17 17 17 17 17 17 17 17 17 17 17 17 17 17 16 16 16 16 16 15 15 15 15 15 14 14 14 14 13 13
19 19 19 19 18 18 18 18 18 18 18 17 17 17 17 17 17 17 17 17 17 17 17 17 17 17 16 16 16 16 15 15 15 15 15 15 14 14 14 14 13 13 13
19 19 19 18 18 18 18 18 18 18 18 17 17 17 17 17 17 17 17 17 17 16 16 16 16 16 16 16 16 16 15 15 15 14 14 14 14 14 13 13 13 13 13
18 18 18 18 18 18 18 18 18 18 17 17 17 17 17 17 17 17 17 17 16 16 16 16 16 16 16 16 15 15 15 15 14 14 14 14 14 14 13 13 13 13 13
18 18 18 18 18 18 18 18 18 17 17 17 17 17 17 17 17 17 17 17 17 16 16 16 16 15 16 15 15 15 15 14 14 14 14 14 14 14 13 13 13 13 13
18 18 18 18 18 18 18 18 18 17 17 17 17 17 17 17 17 16 17 16 16 16 16 16 16 15 15 15 15 15 15 14 14 14 14 13 13 13 13 13 13 13 13
18 18 18 18 18 18 18 18 17 17 17 17 17 17 17 16 16 16 16 16 16 16 16 16 15 15 15 15 15 15 14 14 14 14 13 13 13 13 13 13 12 12 12
18 18 18 18 18 17 17 17 17 17 17 17 17 16 16 16 16 16 16 15 15 16 15 15 15 15 15 15 14 14 14 14 13 13 13 13 13 12 12 12 12 12 12
18 18 18 18 17 17 17 17 17 17 16 16 16 16 16 16 16 16 15 15 15 15 15 15 15 15 15 15 14 14 14 14 13 13 13 13 13 12 12 12 12 12 12
Wind_Speed
3 4 3 3 4 5 5 5 5 5 5 5 5 6 5 5 7 8 9 11 11 10 9 8 7 7 6 6 8 8 8 7 7 6 6 6 7 7 8 8 8 9 9
4 4 3 3 4 4 5 5 6 5 4 4 4 5 4 4 6 7 9 9 10 10 9 8 7 6 6 6 6 7 7 7 7 7 6 6 7 8 8 8 7 7 8
4 4 3 3 3 5 5 4 5 4 4 4 4 5 4 4 4 5 7 8 8 9 9 8 7 7 7 6 6 6 7 7 7 6 6 6 7 8 8 8 7 7 8
5 4 3 3 4 4 4 4 3 3 3 3 3 3 4 4 5 5 5 7 7 8 9 9 8 7 7 7 7 7 7 7 7 7 6 6 7 7 8 8 8 8 8
4 3 3 3 4 3 3 4 4 3 3 3 3 3 3 3 4 4 5 5 6 7 8 9 10 9 8 7 7 7 6 6 6 7 7 6 6 6 7 6 7 7 7
4 3 4 3 3 3 2 2 4 3 3 3 2 3 2 3 3 4 4 5 6 7 7 8 8 8 9 9 8 7 7 7 7 7 7 6 6 6 6 6 7 7 7
3 2 2 3 3 3 3 3 3 3 3 3 3 2 1 3 4 3 3 3 4 5 6 7 8 7 7 9 9 8 8 8 8 7 7 7 7 6 7 7 7 7 7
2 3 2 2 3 2 3 3 3 2 2 2 2 2 1 1 2 3 4 4 4 4 4 5 6 6 6 6 8 9 9 8 8 8 7 7 6 6 6 6 7 8 8
3 2 2 1 2 3 3 3 3 3 2 2 2 1 1 1 1 1 2 3 3 3 3 4 5 6 6 5 6 9 10 9 8 8 8 7 6 5 5 5 6 6 7
3 3 3 2 1 1 2 3 3 3 3 2 2 1 1 1 1 1 1 2 2 3 3 3 4 5 6 5 6 8 10 10 9 8 7 7 6 6 5 5 5 5 5
2 3 3 2 2 1 2 1 1 2 2 2 2 1 1 1 2 2 2 2 2 3 3 3 4 4 6 6 6 7 9 9 9 8 7 6 6 5 5 5 4 4 4
2 3 3 2 2 2 1 2 2 2 2 2 2 2 1 1 1 1 2 2 2 2 2 2 3 4 5 5 6 7 10 10 9 8 8 7 6 6 5 4 4 4 3
2 2 2 2 2 2 2 2 2 3 3 3 2 2 2 1 1 1 1 1 1 1 2 2 2 4 4 6 7 9 9 10 9 8 7 7 6 5 5 4 3 3 2
1 2 2 2 2 3 3 2 3 3 2 3 3 3 2 2 1 1 2 2 2 2 2 2 2 3 5 7 9 9 8 10 9 8 8 7 7 6 5 4 4 3 2
1 2 2 2 2 2 2 1 2 2 2 3 3 3 3 3 2 1 1 2 2 3 3 3 1 2 5 6 9 9 8 10 10 10 9 9 8 7 7 6 5 4 4
1 1 1 1 2 2 2 2 2 2 2 2 3 3 3 3 2 2 3 2 2 3 3 2 2 3 3 4 8 8 8 11 11 12 12 11 10 9 8 7 6 5 4
0 1 1 1 2 2 2 2 3 2 3 3 3 4 3 3 3 2 2 2 3 3 3 2 2 2 3 3 5 6 7 9 9 13 13 12 12 11 10 9 7 6 5
1 1 1 2 2 2 2 3 3 3 3 3 4 4 4 4 3 3 3 3 3 3 3 4 2 3 4 4 5 5 6 7 7 12 14 13 12 12 11 10 9 8 7
2 2 1 2 3 2 2 3 3 3 3 4 4 4 4 4 4 4 4 4 3 4 3 3 3 3 2 4 4 4 4 3 5 9 13 12 13 13 12 11 11 10 9
2 2 3 3 3 2 2 2 3 4 4 4 4 4 4 4 4 4 4 3 3 3 3 4 3 3 3 3 3 3 3 3 3 5 8 9 11 12 13 13 12 11 10
4 3 3 3 3 3 2 2 3 4 4 4 4 4 5 4 2 3 4 3 3 3 3 3 3 3 3 2 3 3 4 3 3 4 5 6 7 8 10 12 13 13 13
3 3 3 3 3 3 1 1 2 4 4 4 5 5 5 4 3 4 4 4 4 5 4 4 4 4 4 3 3 4 3 3 3 4 5 5 6 6 8 10 13 15 16
3 3 4 3 3 2 1 1 3 4 5 5 5 5 6 5 4 3 4 6 6 7 7 5 6 6 4 4 4 4 4 5 4 4 4 5 4 5 7 9 14 16 17
3 4 4 4 3 3 4 3 4 5 6 5 5 4 4 3 3 3 4 4 5 5 6 6 6 5 4 3 4 5 5 5 4 3 4 4 4 5 5 7 13 16 18
4 4 3 3 3 3 4 5 4 5 4 5 5 4 4 3 3 3 4 5 5 5 5 5 5 5 6 6 5 4 5 5 4 4 3 3 3 3 3 4 9 16 18
4 4 4 4 4 3 3 4 4 4 5 5 4 4 4 3 4 4 4 5 6 5 4 4 4 5 6 6 7 6 6 5 4 3 3 3 3 2 2 3 4 9 12
Wind_Direction
96 100 111 118 124 124 129 126 118 117 116 115 116 118 119 119 129 133 138 145 148 152 158 165 172 179 186 188 191 191 194 194 188 185 194 202 201 202 200 208 216 219 214
103 110 107 102 109 112 111 126 129 127 123 120 119 112 111 118 120 128 135 143 149 156 161 166 170 176 180 179 181 186 190 190 191 195 202 208 205 204 203 205 213 215 214
116 117 116 117 117 122 124 120 123 127 132 134 131 130 126 121 122 129 137 146 155 162 167 171 173 180 181 184 188 192 194 196 196 200 206 209 205 201 202 206 207 207 211
120 128 131 128 128 126 126 125 137 136 132 130 134 145 134 134 143 145 143 145 155 162 170 178 175 180 184 193 199 200 200 199 196 199 206 207 206 205 208 208 208 210 212
110 126 123 132 151 136 128 137 129 130 128 131 136 146 150 150 153 155 154 153 156 151 158 175 182 187 192 199 202 202 201 198 196 202 206 205 205 204 204 208 209 207 207
113 119 124 127 130 113 107 115 120 137 143 147 136 120 148 162 159 169 175 165 163 164 167 170 173 189 198 201 200 197 196 194 197 200 204 205 206 207 206 207 209 210 210
120 118 103 115 118 121 135 138 134 152 159 151 137 131 172 179 172 179 184 175 165 166 165 167 173 179 183 196 194 194 196 196 196 197 200 203 207 211 214 216 217 214 214
142 143 123 135 128 140 153 156 154 160 175 164 164 169 173 155 185 187 177 186 179 156 167 174 171 175 170 164 183 195 197 198 196 198 202 204 209 211 218 220 223 220 220
156 137 142 139 151 163 158 172 181 183 197 208 205 223 189 147 146 163 181 167 162 166 179 165 174 169 174 174 173 188 195 196 198 202 204 204 203 204 214 222 221 223 221
162 165 159 156 179 183 168 198 166 205 207 221 217 213 216 159 167 157 201 180 180 191 200 192 171 159 165 173 174 174 184 190 196 203 206 206 206 210 217 220 218 220 221
178 178 173 170 184 209 194 207 173 238 249 246 245 243 214 196 199 175 192 191 201 206 197 190 178 165 163 171 170 172 177 182 188 195 199 203 207 212 212 213 218 222 223
185 185 186 177 190 225 226 223 225 235 254 274 278 269 241 229 204 188 208 198 207 214 202 191 179 169 163 161 165 160 169 176 183 188 190 191 193 197 205 207 213 218 226
185 184 188 185 205 221 230 218 236 247 249 257 265 264 273 271 252 174 174 206 238 253 236 211 188 160 157 151 152 155 166 173 176 177 181 185 187 191 193 192 193 203 223
181 144 176 197 223 234 235 215 238 240 231 240 250 248 256 269 263 202 177 187 228 252 245 223 181 170 157 154 160 168 167 169 171 174 177 180 182 182 182 185 190 189 199
211 159 183 201 224 245 246 232 254 258 240 240 254 246 240 255 248 234 212 204 217 241 245 229 208 187 168 160 168 176 165 172 175 178 182 183 182 181 180 183 185 186 182
19 137 199 226 240 247 250 238 250 244 238 244 255 264 255 259 252 227 230 222 217 242 252 228 223 201 190 184 175 175 171 174 185 187 189 189 187 185 186 185 183 182 181
242 265 248 240 244 249 250 241 249 252 253 255 263 261 256 262 266 264 253 242 231 236 248 248 224 188 195 200 177 187 183 184 187 192 191 191 191 190 190 189 189 189 187
226 245 259 265 255 245 242 243 253 252 247 255 264 266 258 259 256 264 260 257 249 241 239 245 231 205 214 204 190 204 203 199 190 192 191 192 192 193 194 195 196 196 196
233 240 252 257 260 255 246 245 251 263 257 255 256 256 258 256 251 252 256 256 255 256 240 237 239 221 221 208 194 212 217 194 207 190 190 193 196 198 200 200 200 200 201
224 235 243 250 249 247 245 247 250 261 263 263 263 260 259 254 250 252 251 253 259 260 244 237 233 228 220 205 188 202 214 202 211 198 192 194 198 202 206 207 206 204 204
232 230 239 245 252 245 249 247 251 255 256 260 263 263 262 256 248 257 261 259 262 259 255 247 243 236 224 200 211 215 222 215 213 202 184 193 192 201 208 213 213 209 206
246 245 250 249 252 256 214 200 264 267 256 255 261 263 260 239 238 242 256 258 250 247 251 250 252 241 231 221 207 217 223 220 230 200 193 211 192 198 201 204 207 207 207
239 244 252 251 248 251 231 225 268 268 267 257 257 258 263 258 227 236 246 254 255 251 238 239 249 252 248 224 208 223 228 230 238 208 195 221 207 212 210 210 203 204 204
244 246 249 244 243 242 216 231 264 258 262 262 259 256 257 265 262 254 251 252 253 252 244 236 242 253 257 250 219 222 231 237 243 229 202 223 214 217 216 198 198 198 201
245 249 247 249 243 238 220 228 250 259 260 266 264 258 247 249 269 278 264 264 263 258 255 248 241 242 245 246 234 219 222 226 242 236 213 222 226 226 213 200 198 200 201
239 245 249 245 236 233 210 221 236 261 266 266 259 247 239 242 248 241 251 259 262 260 262 259 247 249 243 239 228 219 221 228 239 244 210 210 217 218 233 216 196 194 200
Height
1521 1521 1522 1523 1524 1525 1526 1527 1528 1530 1532 1533 1535 1536 1538 1539 1541 1542 1543 1544 1545 1546 1547 1548 1548 1549 1550 1551 1551 1552 1552 1553 1554 1554 1555 1555 1555 1556 1557 1558 1559 1560 1561
1522 1523 1524 1525 1525 1526 1527 1529 1530 1531 1533 1534 1535 1537 1538 1540 1541 1542 1543 1544 1545 1546 1546 1547 1548 1549 1549 1550 1550 1551 1551 1552 1552 1553 1554 1554 1554 1555 1555 1556 1557 1557 1558
1523 1524 1525 1526 1527 1528 1529 1530 1531 1532 1534 1535 1536 1537 1539 1540 1541 1542 1543 1543 1544 1545 1546 1547 1548 1548 1549 1549 1549 1550 1550 1551 1551 1552 1552 1552 1552 1553 1553 1554 1555 1555 1556
1524 1525 1526 1527 1528 1529 1530 1531 1532 1533 1534 1535 1536 1538 1539 1540 1541 1542 1543 1544 1544 1545 1546 1547 1547 1548 1548 1549 1549 1549 1550 1550 1550 1550 1551 1551 1551 1551 1552 1552 1553 1553 1554
1526 1526 1527 1528 1530 1531 1532 1533 1533 1534 1535 1535 1537 1538 1539 1540 1541 1542 1543 1544 1545 1545 1546 1546 1547 1547 1547 1548 1548 1548 1549 1549 1549 1549 1549 1549 1549 1550 1550 1551 1551 1552 1552
1527 1528 1529 1530 1531 1532 1533 1533 1534 1535 1535 1536 1538 1539 1539 1540 1541 1542 1543 1544 1545 1545 1545 1545 1546 1546 1546 1546 1547 1547 1547 1547 1548 1548 1548 1548 1548 1548 1548 1549 1549 1550 1550
1529 1529 1530 1531 1531 1532 1533 1534 1534 1535 1536 1537 1537 1538 1539 1540 1541 1541 1542 1543 1544 1544 1545 1545 1545 1545 1545 1545 1546 1546 1546 1546 1546 1546 1546 1546 1546 1547 1547 1547 1547 1548 1548
1529 1530 1531 1531 1532 1533 1534 1534 1535 1535 1536 1537 1538 1538 1539 1541 1540 1541 1542 1542 1543 1543 1544 1544 1544 1544 1544 1544 1544 1544 1544 1544 1545 1545 1545 1545 1545 1545 1545 1545 1545 1545 1546
1530 1530 1531 1532 1532 1533 1534 1534 1535 1536 1536 1537 1538 1539 1539 1539 1540 1541 1541 1542 1542 1542 1543 1543 1543 1543 1543 1543 1543 1543 1543 1543 1543 1543 1543 1543 1543 1543 1543 1543 1543 1543 1543
1530 1530 1531 1532 1532 1533 1534 1534 1535 1536 1536 1536 1537 1538 1538 1538 1539 1540 1541 1541 1541 1541 1541 1542 1541 1542 1542 1542 1542 1541 1541 1541 1541 1541 1541 1541 1541 1541 1541 1541 1541 1541 1541
1530 1530 1531 1531 1532 1533 1533 1534 1534 1535 1535 1536 1536 1537 1537 1538 1538 1539 1539 1540 1539 1539 1540 1540 1539 1539 1539 1540 1540 1539 1539 1539 1539 1539 1539 1539 1538 1538 1539 1539 1538 1538 1538
1530 1530 1530 1531 1531 1532 1532 1533 1533 1533 1534 1534 1535 1535 1536 1536 1537 1537 1537 1538 1538 1538 1538 1538 1538 1538 1537 1538 1538 1538 1537 1537 1537 1537 1537 1536 1536 1536 1536 1536 1536 1536 1535
1529 1529 1530 1530 1530 1531 1531 1531 1531 1531 1532 1532 1533 1533 1534 1534 1535 1535 1536 1536 1537 1537 1537 1537 1537 1536 1536 1536 1536 1536 1536 1535 1535 1535 1534 1534 1534 1534 1534 1533 1533 1533 1533
1528 1528 1528 1529 1529 1529 1529 1529 1529 1529 1530 1530 1531 1531 1532 1532 1533 1534 1534 1534 1534 1535 1535 1535 1535 1535 1534 1534 1533 1534 1534 1533 1533 1533 1532 1532 1532 1531 1531 1531 1531 1530 1530
1528 1527 1527 1527 1527 1527 1527 1527 1527 1528 1528 1528 1528 1529 1529 1530 1531 1531 1532 1532 1533 1532 1532 1532 1533 1533 1532 1532 1531 1531 1531 1531 1531 1530 1530 1530 1529 1529 1529 1528 1528 1528 1528
1526 1526 1525 1525 1525 1525 1525 1525 1525 1525 1526 1526 1526 1527 1527 1528 1528 1528 1529 1529 1530 1530 1529 1529 1529 1530 1530 1529 1529 1528 1528 1528 1528 1528 1527 1527 1526 1526 1526 1526 1525 1525 1525
1524 1524 1523 1523 1523 1523 1523 1523 1523 1523 1523 1524 1524 1524 1524 1525 1525 1526 1526 1526 1526 1527 1526 1525 1526 1526 1526 1526 1526 1526 1525 1525 1525 1525 1524 1524 1524 1523 1523 1523 1523 1523 1523
1522 1522 1521 1521 1521 1521 1521 1520 1521 1521 1521 1521 1521 1521 1522 1522 1522 1523 1523 1523 1523 1523 1523 1522 1522 1522 1522 1522 1522 1522 1522 1522 1522 1521 1521 1521 1521 1521 1521 1520 1520 1520 1520
1520 1520 1519 1519 1519 1519 1518 1518 1518 1518 1518 1518 1518 1518 1519 1519 1519 1519 1519 1520 1520 1520 1520 1519 1519 1519 1519 1519 1519 1519 1519 1519 1518 1518 1517 1518 1518 1518 1518 1518 1517 1517 1517
1518 1518 1518 1518 1517 1517 1516 1516 1516 1516 1516 1516 1516 1516 1516 1516 1516 1516 1516 1516 1516 1516 1516 1516 1515 1516 1516 1516 1515 1515 1515 1515 1515 1515 1515 1515 1515 1515 1515 1515 1514 1514 1514
1517 1516 1516 1516 1515 1515 1514 1514 1513 1513 1513 1513 1513 1513 1513 1513 1513 1513 1513 1513 1513 1512 1512 1512 1512 1512 1512 1512 1512 1512 1511 1512 1512 1511 1511 1511 1511 1511 1511 1511 1511 1511 1511
1514 1514 1514 1513 1513 1513 1512 1512 1511 1510 1510 1510 1509 1509 1510 1510 1509 1509 1509 1509 1509 1509 1508 1508 1508 1508 1508 1508 1508 1508 1508 1508 1507 1508 1507 1507 1507 1507 1507 1507 1507 1507 1508
1511 1511 1511 1511 1510 1510 1510 1509 1508 1508 1507 1507 1506 1506 1506 1506 1505 1505 1505 1505 1505 1504 1505 1505 1504 1504 1504 1503 1503 1503 1504 1504 1503 1503 1504 1503 1503 1503 1503 1503 1504 1504 1504
1509 1508 1508 1508 1507 1506 1506 1506 1505 1504 1504 1504 1503 1503 1503 1502 1502 1501 1501 1500 1500 1500 1500 1500 1499 1499 1499 1499 1499 1499 1500 1500 1500 1500 1500 1499 1499 1499 1499 1499 1500 1500 1500
1506 1506 1505 1505 1504 1503 1503 1503 1502 1501 1501 1500 1500 1500 1499 1499 1498 1498 1497 1496 1495 1495 1495 1495 1495 1495 1494 1495 1495 1494 1494 1495 1495 1495 1496 1495 1495 1495 1495 1495 1495 1496 1496
1502 1502 1502 1502 1501 1500 1500 1499 1499 1498 1497 1497 1496 1496 1496 1495 1494 1494 1493 1492 1490 1490 1490 1490 1490 1489 1489 1489 1490 1490 1490 1490 1490 1490 1490 1491 1491 1491 1491 1491 1491 1492 1492